Flag Weather past 2 weeks in Antananarivo, Madagascar

Now
84 °F

Partly sunny.


Feels Like: 86 °F
Forecast: 63 / 84 °F
Wind: 3 mph from North

Location: Antananarivo / Ivato

Current Time: Nov 28, 2014 at 1:22:12 PM

Latest Report: Nov 28, 2014 at 1:00 PM


Visibility: N/A

Pressure: 30.04 "Hg

Humidity: 51%

Dew point: 64 °F

Location of AntananarivoLocation

Historic Weather in Antananarivo — Graph

°F

Antananarivo temperature yesterday

Maximum temperature yesterday: 86 °F (at 2:00 PM)
Minimum temperature yesterday: 61 °F (at 4:00 AM)
Average temperature yesterday: 72 °F

Past Weeks' High & Low Weather Summary

 TemperatureHumidityPressure
High86 °F (Nov 16, 3:30 PM)100% (Nov 13, 7:30 PM)30.27 "Hg (Nov 13, 7:30 PM)
Low57 °F (Nov 15, 4:30 AM)30% (Nov 17, 10:30 PM)29.95 "Hg (Nov 26, 2:30 PM)
Average71 °F83%30.13 "Hg
* Reported Nov 13 12:00 Noon — Nov 28 12:00 Noon, Antananarivo, Weather by CustomWeather, © 2014

Note: Actual official high and low records may vary slightly from our data, if they occured in-between our weather recording intervals... More about our weather records

Advertising

Antananarivo weather history for previous 24 hours

 ConditionsComfort  
Time TempWeatherWind HumidityBarometerVisibility
12:00 PM
Nov 28
82 °FScattered clouds.8 mph55%30.04 "HgN/A
11:30 AM82 °FScattered clouds.2 mph58%30.07 "HgN/A
11:00 AM81 °FScattered clouds.6 mph58%30.07 "HgN/A
10:30 AM79 °FScattered clouds.2 mph70%30.07 "HgN/A
10:00 AM77 °FScattered clouds.3 mph74%30.07 "HgN/A
9:30 AM77 °FPassing clouds.3 mph69%30.09 "HgN/A
9:00 AM77 °FPassing clouds.3 mph74%30.09 "HgN/A
8:30 AM75 °FPassing clouds.3 mph83%30.09 "HgN/A
8:00 AM73 °FScattered clouds.3 mph94%30.09 "Hg6 mi
7:30 AM70 °FScattered clouds.6 mph100%30.09 "Hg5 mi
6:30 AM63 °FScattered clouds.2 mph100%30.09 "Hg4 mi
6:00 AM63 °FScattered clouds.2 mph100%30.07 "Hg4 mi
5:30 AM61 °FPassing clouds.2 mph100%30.07 "Hg4 mi
5:00 AM61 °FPassing clouds.3 mph100%30.07 "Hg4 mi
4:30 AM63 °FPassing clouds.1 mph100%30.04 "HgN/A
4:00 AM63 °FPassing clouds.2 mph100%30.04 "HgN/A
3:30 AM63 °FPassing clouds.2 mph100%30.04 "HgN/A
3:00 AM63 °FPassing clouds.2 mph100%30.04 "HgN/A
2:00 AM61 °FPassing clouds.No wind100%30.01 "HgN/A
1:00 AM63 °FPassing clouds.5 mph100%30.04 "HgN/A
12:30 AM63 °FPassing clouds.2 mph100%30.04 "HgN/A
12:00 AM63 °FPassing clouds.3 mph100%30.04 "HgN/A
11:30 PM
Nov 27
63 °FPassing clouds.1 mph100%30.04 "HgN/A
11:00 PM64 °FPassing clouds.3 mph100%30.04 "HgN/A
10:30 PM63 °FPassing clouds.No wind94%30.04 "HgN/A
10:00 PM66 °FPassing clouds.1 mph78%30.04 "HgN/A
9:30 PM66 °FPassing clouds.6 mph83%30.04 "HgN/A
9:00 PM68 °FPassing clouds.6 mph78%30.04 "HgN/A
8:30 PM66 °FPassing clouds.7 mph83%30.01 "HgN/A
8:00 PM68 °FPassing clouds.5 mph73%30.01 "HgN/A
7:30 PM70 °FPassing clouds.5 mph69%30.01 "HgN/A
7:00 PM73 °FPassing clouds.3 mph57%30.01 "HgN/A
6:30 PM75 °FPassing clouds.3 mph54%29.98 "HgN/A
6:00 PM77 °FPassing clouds.6 mph51%29.95 "HgN/A
5:30 PM81 °FPassing clouds.8 mph45%29.95 "HgN/A
5:00 PM82 °FScattered clouds.10 mph42%29.95 "HgN/A
4:30 PM82 °FScattered clouds.10 mph40%29.95 "HgN/A
4:00 PM84 °FPartly sunny.14 mph43%29.95 "HgN/A
3:30 PM84 °FScattered clouds.12 mph43%29.95 "HgN/A
3:00 PM82 °FScattered clouds.9 mph42%29.95 "HgN/A
2:30 PM84 °FPartly sunny.14 mph43%29.95 "HgN/A
2:00 PM86 °FPartly sunny.14 mph43%29.95 "HgN/A
1:30 PM84 °FPartly sunny.13 mph45%29.95 "HgN/A
1:00 PM84 °FPartly sunny.12 mph45%29.95 "HgN/A
Weather by CustomWeather, © 2014

See weather overviewHow to use our weather pages